DW2715 Weather Reports


time (UTC)temp
C
wind
direction
speed
KPH
gust
KPH
rain 1hr
cm
rain 24hr
cm
rain mn
cm
humidity
%
barometer
mb
20260503021650 11 220 0.0 0.0 0.00 0.00 0.00 73 1019.8
20260503021147 11 220 0.0 0.0 0.00 0.00 0.00 72 1019.8
20260503020646 11 220 0.0 0.0 0.00 0.00 0.00 72 1019.8
20260503020148 11 220 0.0 0.0 0.00 0.00 0.00 72 1019.8
20260503015646 11 220 0.0 0.0 0.00 0.00 0.00 71 1019.8
20260503015143 11 220 0.0 0.0 0.00 0.00 0.00 71 1019.8
20260503014642 11 220 0.0 0.0 0.00 0.00 0.00 70 1019.8
20260503014140 11 220 0.0 0.0 0.00 0.00 0.00 70 1019.9
20260503013638 11 220 0.0 0.0 0.00 0.00 0.00 70 1019.8
20260503012635 11 220 0.0 0.0 0.00 0.00 0.00 69 1019.9
20260503012137 12 220 0.0 0.0 0.00 0.00 0.00 69 1019.8
20260503011636 12 220 0.0 0.0 0.00 0.00 0.00 68 1019.8
20260503011135 12 220 0.0 0.0 0.00 0.00 0.00 68 1019.9
20260503010634 12 220 0.0 0.0 0.00 0.00 0.00 68 1019.9
20260503010131 12 220 0.0 0.0 0.00 0.00 0.00 68 1019.8
20260503005631 12 220 0.0 0.0 0.00 0.00 0.00 67 1019.9
20260503005131 12 220 0.0 0.0 0.00 0.00 0.00 66 1019.9
20260503004631 12 220 0.0 0.0 0.00 0.00 0.00 66 1019.9
20260503003619 12 220 0.0 0.0 0.00 0.00 0.00 66 1020.0
20260503002605 12 220 0.0 0.0 0.00 0.00 0.00 65 1020.1
20260503002102 12 220 0.0 0.0 0.00 0.00 0.00 65 1020.1
20260503001103 13 220 0.0 0.0 0.00 0.00 0.00 65 1020.1
20260503000604 13 219 0.0 0.0 0.00 0.00 0.00 65 1020.2
20260502235603 13 219 0.0 0.0 0.00 0.00 0.00 64 1020.3
20260502235103 13 219 0.0 0.0 0.00 0.00 0.00 63 1020.3
20260502234605 13 219 0.0 0.0 0.00 0.00 0.00 61 1020.3
20260502234103 13 219 0.0 0.0 0.00 0.00 0.00 61 1020.4
20260502233602 13 219 0.0 0.0 0.00 0.00 0.00 60 1020.4
20260502232602 13 219 0.0 0.0 0.00 0.00 0.00 59 1020.5
20260502232102 14 219 0.0 0.0 0.00 0.00 0.00 59 1020.5
20260502231603 14 219 0.0 0.0 0.00 0.00 0.00 59 1020.5
20260502230617 14 219 0.0 0.0 0.00 0.00 0.00 58 1020.5
20260502225103 14 219 0.0 0.0 0.00 0.00 0.00 57 1020.6
20260502223602 14 219 0.0 0.0 0.00 0.00 0.00 57 1020.7
20260502222604 15 219 0.0 3.2 0.00 0.00 0.00 56 1020.8
20260502222104 15 219 0.0 0.0 0.00 0.00 0.00 56 1020.7
20260502221603 15 219 0.0 0.0 0.00 0.00 0.00 56 1020.8
20260502221103 15 219 0.0 0.0 0.00 0.00 0.00 55 1020.8
20260502220602 15 220 0.0 0.0 0.00 0.00 0.00 55 1020.8
20260502220103 15 220 0.0 0.0 0.00 0.00 0.00 54 1020.8
20260502215602 15 220 0.0 0.0 0.00 0.00 0.00 54 1020.8
20260502215102 15 220 0.0 0.0 0.00 0.00 0.00 54 1020.8
20260502214602 15 220 0.0 0.0 0.00 0.00 0.00 54 1020.8
20260502214103 15 220 0.0 0.0 0.00 0.00 0.00 54 1020.8
20260502213602 16 220 0.0 0.0 0.00 0.00 0.00 53 1020.8
20260502213102 16 209 0.0 0.0 0.00 0.00 0.00 53 1020.8
20260502212603 16 209 0.0 0.0 0.00 0.00 0.00 53 1020.8
20260502212103 16 209 0.0 1.6 0.00 0.00 0.00 53 1020.8
20260502211602 16 209 0.0 1.6 0.00 0.00 0.00 52 1020.8
20260502211102 16 209 0.0 0.0 0.00 0.00 0.00 52 1020.8
20260502210602 16 209 0.0 0.0 0.00 0.00 0.00 51 1020.8
20260502210119 16 209 0.0 4.8 0.00 0.00 0.00 51 1020.9
20260502205603 16 208 0.0 4.8 0.00 0.00 0.00 51 1020.9
20260502205102 16 208 0.0 0.0 0.00 0.00 0.00 51 1020.9
20260502204604 16 207 0.0 0.0 0.00 0.00 0.00 51 1020.9
20260502204102 16 216 0.0 0.0 0.00 0.00 0.00 50 1020.9
20260502203602 17 216 0.0 0.0 0.00 0.00 0.00 50 1020.9
20260502203102 17 216 0.0 0.0 0.00 0.00 0.00 50 1020.9
20260502202601 17 216 0.0 0.0 0.00 0.00 0.00 49 1020.9
20260502202102 17 216 0.0 0.0 0.00 0.00 0.00 49 1020.9
20260502201600 17 216 0.0 0.0 0.00 0.00 0.00 48 1020.9
20260502201101 17 216 0.0 0.0 0.00 0.00 0.00 48 1021.0
20260502200101 17 216 0.0 0.0 0.00 0.00 0.00 48 1020.9
20260502195101 18 216 0.0 0.0 0.00 0.00 0.00 47 1021.0
20260502194600 18 216 0.0 0.0 0.00 0.00 0.00 47 1020.9
20260502193601 18 216 0.0 0.0 0.00 0.00 0.00 46 1020.9
20260502192600 18 216 0.0 0.0 0.00 0.00 0.00 45 1020.8
20260502192102 18 216 0.0 0.0 0.00 0.00 0.00 45 1020.8
20260502191601 18 216 0.0 0.0 0.00 0.00 0.00 45 1020.8
20260502191101 19 214 0.0 0.0 0.00 0.00 0.00 44 1020.8
20260502190601 19 214 0.0 0.0 0.00 0.00 0.00 44 1020.7
20260502190101 19 215 0.0 0.0 0.00 0.00 0.00 44 1020.8
20260502185601 20 213 0.0 0.0 0.00 0.00 0.00 43 1020.8
20260502185102 20 217 0.0 0.0 0.00 0.00 0.00 43 1020.7
20260502184601 20 220 0.0 0.0 0.00 0.00 0.00 42 1020.8
20260502184101 20 220 0.0 0.0 0.00 0.00 0.00 42 1020.7
20260502183602 20 219 0.0 0.0 0.00 0.00 0.00 41 1020.7
20260502183100 20 221 0.0 3.2 0.00 0.00 0.00 41 1020.6
20260502182602 21 221 1.6 4.8 0.00 0.00 0.00 40 1020.6
20260502182100 21 221 3.2 6.4 0.00 0.00 0.00 39 1020.6
20260502181601 21 221 3.2 8.0 0.00 0.00 0.00 39 1020.6
20260502181100 21 235 1.6 8.0 0.00 0.00 0.00 38 1020.6
20260502180600 21 225 0.0 0.0 0.00 0.00 0.00 38 1020.5
20260502164030 24 224 4.8 11.3 0.00 0.00 0.00 32 1020.7
20260502163529 24 175 6.4 14.5 0.00 0.00 0.00 32 1020.7
20260502162031 23 244 6.4 16.1 0.00 0.00 0.00 32 1020.8
20260502161530 24 225 6.4 19.3 0.00 0.00 0.00 32 1020.8
20260502161030 24 240 6.4 19.3 0.00 0.00 0.00 31 1020.9
20260502160530 25 249 6.4 14.5 0.00 0.00 0.00 30 1020.9
20260502151529 25 226 6.4 14.5 0.00 0.00 0.00 30 1021.3
20260502151030 25 227 6.4 14.5 0.00 0.00 0.00 31 1021.3
20260502150530 25 225 6.4 14.5 0.00 0.00 0.00 30 1021.4
20260502130501 23 204 8.0 17.7 0.00 0.00 0.00 31 1023.0
20260502123452 23 228 4.8 16.1 0.00 0.00 0.00 31 1023.3
20260502122452 23 238 4.8 17.7 0.00 0.00 0.00 31 1023.5
20260502121952 23 200 4.8 19.3 0.00 0.00 0.00 31 1023.5
20260502120952 23 217 4.8 17.7 0.00 0.00 0.00 31 1023.6
20260502120452 23 219 6.4 17.7 0.00 0.00 0.00 31 1023.7
20260502115450 23 242 8.0 19.3 0.00 0.00 0.00 31 1023.8
20260502114950 23 272 9.7 25.7 0.00 0.00 0.00 32 1023.8
20260502114450 23 163 8.0 25.7 0.00 0.00 0.00 32 1023.9
20260502113949 23 181 6.4 16.1 0.00 0.00 0.00 33 1023.9
20260502113450 22 251 4.8 12.9 0.00 0.00 0.00 32 1024.0
20260502112950 22 284 4.8 14.5 0.00 0.00 0.00 31 1024.1
20260502112450 23 307 3.2 14.5 0.00 0.00 0.00 31 1024.2
20260502111449 23 195 4.8 14.5 0.00 0.00 0.00 30 1024.3
20260502110949 23 270 8.0 14.5 0.00 0.00 0.00 33 1024.3
20260502105950 23 216 9.7 19.3 0.00 0.00 0.00 33 1024.5
20260502105446 22 205 8.0 17.7 0.00 0.00 0.00 33 1024.5
20260502104445 22 143 6.4 17.7 0.00 0.00 0.00 34 1024.6
20260502103945 22 201 4.8 12.9 0.00 0.00 0.00 34 1024.6
20260502103445 22 171 6.4 12.9 0.00 0.00 0.00 35 1024.8
20260502101945 21 281 4.8 14.5 0.00 0.00 0.00 34 1025.0
20260502101446 22 221 6.4 19.3 0.00 0.00 0.00 35 1025.1
20260502100442 21 248 3.2 12.9 0.00 0.00 0.00 38 1025.2
20260502091433 20 267 1.6 12.9 0.00 0.00 0.00 39 1025.6
20260502090432 20 268 1.6 6.4 0.00 0.00 0.00 38 1025.7
20260502071430 15 17 1.6 6.4 0.00 0.00 0.00 51 1026.3
20260502070930 15 11 3.2 6.4 0.00 0.00 0.00 51 1026.3
20260502070431 15 28 3.2 8.0 0.00 0.00 0.00 51 1026.4
20260502065930 15 53 3.2 8.0 0.00 0.00 0.00 52 1026.3
20260502065431 15 30 3.2 8.0 0.00 0.00 0.00 52 1026.4
20260502064930 15 355 3.2 8.0 0.00 0.00 0.00 53 1026.4
20260502064431 14 44 3.2 8.0 0.00 0.00 0.00 54 1026.3
20260502063430 13 342 4.8 11.3 0.00 0.00 0.00 56 1026.4
20260502062931 13 355 4.8 11.3 0.00 0.00 0.00 56 1026.4
20260502061930 13 344 1.6 6.4 0.00 0.00 0.00 58 1026.5
20260502061430 13 333 3.2 6.4 0.00 0.00 0.00 59 1026.4
20260502060930 12 335 1.6 6.4 0.00 0.00 0.00 59 1026.5
20260502060430 12 5 0.0 3.2 0.00 0.00 0.00 60 1026.5
20260502054928 12 317 0.0 3.2 0.00 0.00 0.00 60 1026.4
20260502053929 11 291 1.6 4.8 0.00 0.00 0.00 62 1026.4
20260502051418 10 328 0.0 0.0 0.00 0.00 0.00 67 1026.5
20260502050916 10 328 0.0 0.0 0.00 0.00 0.00 69 1026.5
20260502045412 9 355 0.0 0.0 0.00 0.00 0.00 72 1026.4
20260502044912 8 355 0.0 0.0 0.00 0.00 0.00 72 1026.4
20260502043910 8 355 0.0 0.0 0.00 0.00 0.00 72 1026.4
20260502043408 8 355 0.0 0.0 0.00 0.00 0.00 72 1026.4
20260502042906 8 355 0.0 0.0 0.00 0.00 0.00 72 1026.3
20260502041904 8 355 0.0 0.0 0.00 0.00 0.00 72 1026.4
20260502041402 8 355 0.0 0.0 0.00 0.00 0.00 72 1026.3
20260502040856 8 355 0.0 0.0 0.00 0.00 0.00 72 1026.3
20260502040357 8 355 0.0 0.0 0.00 0.00 0.00 72 1026.4
20260502035858 8 355 0.0 0.0 0.00 0.00 0.00 72 1026.3
20260502035356 8 355 0.0 0.0 0.00 0.00 0.00 72 1026.3
20260502034856 8 355 0.0 0.0 0.00 0.00 0.00 72 1026.2
20260502034354 8 355 0.0 0.0 0.00 0.00 0.00 72 1026.2
20260502032854 8 355 0.0 0.0 0.00 0.00 0.00 72 1026.3
20260502032354 8 355 0.0 0.0 0.00 0.00 0.00 71 1026.3
20260502031850 8 355 0.0 0.0 0.00 0.00 0.00 71 1026.3
20260502031350 8 355 0.0 0.0 0.00 0.00 0.00 70 1026.3
20260502030850 8 355 0.0 0.0 0.00 0.00 0.00 70 1026.3
20260502030350 8 355 0.0 0.0 0.00 0.00 0.00 70 1026.4
20260502025850 9 355 0.0 0.0 0.00 0.00 0.00 69 1026.4
20260502025350 9 355 0.0 0.0 0.00 0.00 0.00 69 1026.5
20260502024850 9 355 0.0 0.0 0.00 0.00 0.00 68 1026.4
20260502024350 9 355 0.0 0.0 0.00 0.00 0.00 67 1026.5
20260502023850 9 355 0.0 0.0 0.00 0.00 0.00 66 1026.5
20260502022851 9 355 0.0 0.0 0.00 0.00 0.00 66 1026.4
20260502022351 9 355 0.0 0.0 0.00 0.00 0.00 66 1026.5